Weather History for KFMY - December, 2011

Change the Weather History Date:

Sunday, December 25, 2011

  Actual Average Record
Temperature  
Mean Temperature 76 °F 65 °F  
Max Temperature 85 °F 75 °F 86 °F (1962)
Min Temperature 66 °F 55 °F 28 °F (1989)
Degree Days  
Heating Degree Days 0 3  
Month to date heating degree days 10 53  
Since 1 July heating degree days 14 71  
Cooling Degree Days 11 3  
Month to date cooling degree days 162 103  
Year to date cooling degree days 4256 3966  
Growing Degree Days 25 (Base 50)    
Moisture  
Dew Point 65 °F    
Average Humidity 81    
Maximum Humidity 100    
Minimum Humidity 47    
Precipitation  
Precipitation 0.00 in 0.06 in 1.53 in (2004)
Month to date precipitation 0.26 1.34  
Year to date precipitation 65.67 55.56  
Sea Level Pressure  
Sea Level Pressure 30.20 in    
Wind  
Wind Speed 5 mph (East)    
Max Wind Speed 13 mph    
Max Gust Speed 17 mph    
Visibility 7 miles    
Events Fog    
T = Trace of Precipitation, MM = Missing Value Source: NWS Daily Summary

Daily Weather History Graph

Daily Weather History Graph

Search for Another Location

Airport or City:

Trip Planner

Search our weather history database for the weather conditions in past years. The results will help you decide how hot, cold, wet, or windy it might be!

Date:

Astronomy

Dec. 25, 2011 Rise Set
Actual Time 7:13 AM EST 5:41 PM EST
Civil Twilight 6:47 AM EST 6:07 PM EST
Nautical Twilight 6:18 AM EST 6:36 PM EST
Astronomical Twilight 5:50 AM EST 7:04 PM EST
Moon 7:54 AM EST (12/25) 6:55 PM EST (12/25)
Length of Visible Light 11h 19m
Length of Day
10h 28m
New Moon, 1% of the Moon is Illuminated
Dec 25
New Moon
Jan 1
First Quarter
Jan 9
Full
Jan 16
Last Quarter
Jan 23
New

Hourly Weather History & Observations

Time (EST) Temp. Heat Index Dew Point Humidity Pressure Visibility Wind Dir Wind Speed Gust Speed Precip Events Conditions
12:53 AM 68.0 °F - 66.0 °F 93% 30.22 in 10.0 mi ENE 5.8 mph - N/A   Clear
1:53 AM 68.0 °F - 66.0 °F 93% 30.21 in 10.0 mi East 5.8 mph - N/A   Clear
2:53 AM 68.0 °F - 64.9 °F 90% 30.20 in 10.0 mi ENE 4.6 mph - N/A   Clear
3:53 AM 66.9 °F - 64.9 °F 93% 30.19 in 9.0 mi ENE 5.8 mph - N/A   Clear
4:08 AM 66.2 °F - 64.4 °F 94% 30.18 in 9.0 mi ENE 5.8 mph - N/A   Scattered Clouds
4:23 AM 66.2 °F - 64.4 °F 94% 30.18 in 1.8 mi ENE 6.9 mph - N/A   Mostly Cloudy
4:34 AM 66.2 °F - 64.4 °F 94% 30.18 in 0.5 mi East 4.6 mph - N/A Fog Fog
4:53 AM 66.9 °F - 64.9 °F 93% 30.19 in 0.8 mi East 3.5 mph - N/A   Mist
5:14 AM 66.2 °F - 64.4 °F 94% 30.18 in 1.0 mi ENE 5.8 mph - N/A   Overcast
5:33 AM 66.2 °F - 64.4 °F 94% 30.19 in 0.8 mi ENE 4.6 mph - N/A   Mist
5:53 AM 66.9 °F - 64.9 °F 93% 30.20 in 0.8 mi ENE 5.8 mph - N/A   Mist
6:53 AM 66.0 °F - 64.9 °F 96% 30.21 in 0.5 mi ENE 4.6 mph - N/A Fog Fog
7:53 AM 66.0 °F - 64.9 °F 96% 30.23 in 0.2 mi NE 6.9 mph - N/A Fog Fog
8:53 AM 66.9 °F - 66.0 °F 97% 30.25 in 0.5 mi ENE 4.6 mph - N/A Fog Fog
9:21 AM 68.0 °F - 66.2 °F 94% 30.24 in 3.0 mi East 6.9 mph - N/A   Overcast
9:53 AM 70.0 °F - 66.9 °F 90% 30.25 in 10.0 mi East 5.8 mph - N/A   Overcast
10:15 AM 73.4 °F - 68.0 °F 83% 30.25 in 10.0 mi ESE 4.6 mph - N/A   Partly Cloudy
10:53 AM 77.0 °F - 68.0 °F 74% 30.24 in 10.0 mi ESE 8.1 mph - N/A   Clear
11:53 AM 81.0 °F 82.7 °F 64.9 °F 58% 30.22 in 10.0 mi ESE 10.4 mph - N/A   Clear
12:53 PM 82.9 °F 84.0 °F 63.0 °F 51% 30.19 in 10.0 mi ESE 12.7 mph - N/A   Mostly Cloudy
1:53 PM 82.9 °F 84.0 °F 63.0 °F 51% 30.17 in 10.0 mi ESE 8.1 mph - N/A   Mostly Cloudy
2:53 PM 84.0 °F 84.5 °F 62.1 °F 47% 30.15 in 10.0 mi Variable 4.6 mph - N/A   Partly Cloudy
3:53 PM 82.0 °F 82.7 °F 61.0 °F 49% 30.14 in 10.0 mi SE 3.5 mph - N/A   Mostly Cloudy
4:53 PM 82.0 °F 83.1 °F 63.0 °F 52% 30.15 in 10.0 mi Calm Calm - N/A   Overcast
5:53 PM 75.9 °F - 66.9 °F 74% 30.17 in 10.0 mi SW 4.6 mph - N/A   Partly Cloudy
7:53 PM 73.9 °F - 66.0 °F 76% 30.19 in 10.0 mi Calm Calm - N/A   Mostly Cloudy
9:53 PM 73.9 °F - 66.0 °F 76% 30.21 in 10.0 mi Calm Calm - N/A   Scattered Clouds
10:53 PM 73.0 °F - 66.0 °F 79% 30.21 in 10.0 mi Calm Calm - N/A   Mostly Cloudy
11:53 PM 71.1 °F - 66.0 °F 84% 30.19 in 10.0 mi Calm Calm - N/A   Partly Cloudy